Jaipur, India

6:28 PM IST on November 21, 2017 (GMT +0530)
Jaipur

Weather History for VIJP - May, 2013

Change the Weather History Date:

Wednesday, May 29, 2013

  Actual Average Record
Temperature  
Mean Temperature 97 °F -  
Max Temperature 106 °F - - ()
Min Temperature 88 °F - - ()
Cooling Degree Days 32    
Growing Degree Days 47 (Base 50)    
Moisture  
Dew Point 49 °F    
Average Humidity 18    
Maximum Humidity 30    
Minimum Humidity 9    
Precipitation  
Precipitation 0.00 in - - ()
Sea Level Pressure  
Sea Level Pressure 29.62 in    
Wind  
Wind Speed 6 mph ()    
Max Wind Speed 13 mph    
Max Gust Speed -    
Visibility 2.6 miles    
Events      
T = Trace of Precipitation, MM = Missing Value Source: Averaged Metar Reports

Daily Weather History Graph

Daily Weather History Graph

Search for Another Location

Airport or City:

Trip Planner

Search our weather history database for the weather conditions in past years. The results will help you decide how hot, cold, wet, or windy it might be!

Date:

Astronomy

May. 29, 2013 Rise Set
Actual Time 5:33 AM IST 7:14 PM IST
Civil Twilight 5:08 AM IST 7:40 PM IST
Nautical Twilight 4:37 AM IST 8:11 PM IST
Astronomical Twilight 4:04 AM IST 8:44 PM IST
Moon 11:14 PM IST (5/29) 9:49 AM IST (5/29)
Length of Visible Light 14h 32m
Length of Day
13h 40m
Waning Gibbous, 77% of the Moon is Illuminated
May 29
Waning Gibbous
Jun 1
Last Quarter
Jun 8
New
Jun 16
First Quarter
Jun 23
Full

Hourly Weather History & Observations

Time (IST) Temp. Heat Index Dew Point Humidity Pressure Visibility Wind Dir Wind Speed Gust Speed Precip Events Conditions
12:00 AM 93.2 °F - 46.4 °F 20% 29.65 in 2.5 mi WNW 8.1 mph - N/A   Haze
1:00 AM 93.2 °F - 46.4 °F 20% 29.65 in 2.5 mi WNW 6.9 mph - N/A   Haze
2:00 AM 91.4 °F - 46.4 °F 21% 29.65 in 2.5 mi NW 6.9 mph - N/A   Haze
2:30 AM 94 °F - 47 °F 12% 29.54 in 2 mi WNW 10.4 mph - -   Haze
3:00 AM 93.2 °F - 44.6 °F 19% 29.65 in 2.5 mi Variable 6.9 mph - N/A   Haze
4:00 AM 89.6 °F - 48.2 °F 24% 29.65 in 2.5 mi NW 5.8 mph - N/A   Haze
5:00 AM 89.6 °F - 48.2 °F 24% 29.65 in 2.5 mi NNW 6.9 mph - N/A   Haze
5:30 AM 90 °F - 49 °F 16% 29.57 in 2 mi SW 2.3 mph - -   Haze
6:00 AM 89.6 °F - 48.2 °F 24% 29.68 in 2.5 mi Variable 10.4 mph - N/A   Haze
7:00 AM 91.4 °F - 48.2 °F 23% 29.71 in 2.5 mi NNW 8.1 mph - N/A   Haze
8:00 AM 93.2 °F 91.3 °F 55.4 °F 28% 29.71 in 2.5 mi NW 9.2 mph - N/A   Haze
8:30 AM 92 °F - 57 °F 21% 29.60 in 2 mi West 6.9 mph - -   Haze
9:00 AM 95.0 °F 94.4 °F 59.0 °F 30% 29.71 in 2.5 mi WNW 12.7 mph - N/A   Haze
11:00 AM 100.4 °F 98.4 °F 53.6 °F 21% 29.71 in 3.1 mi Variable 9.2 mph - N/A   Haze
11:30 AM 102 °F - 57 °F 14% 29.58 in 2 mi NW 9.2 mph - -  
12:00 PM 102.2 °F - 50.0 °F 17% 29.68 in 3.1 mi Variable 8.1 mph - N/A   Haze
1:00 PM 104.0 °F - 44.6 °F 13% 29.65 in 3.1 mi Variable 4.6 mph - N/A   Haze
2:00 PM 105.8 °F - 44.6 °F 13% 29.65 in 3.1 mi Variable 5.8 mph - N/A   Haze
2:30 PM 106 °F - 63 °F 16% 29.51 in 2 mi West 6.9 mph - -   Haze
3:00 PM 105.8 °F - 44.6 °F 13% 29.62 in 3.1 mi Variable 5.8 mph - N/A   Haze
4:00 PM 105.8 °F - 42.8 °F 12% 29.59 in 3.1 mi West 5.8 mph - N/A   Haze
5:00 PM 105.8 °F - 42.8 °F 12% 29.59 in 3.1 mi Variable 2.3 mph - N/A   Haze
6:00 PM 104.0 °F - 42.8 °F 12% 29.56 in 3.1 mi Variable 6.9 mph - N/A   Haze
7:00 PM 102.2 °F - 44.6 °F 14% 29.59 in 3.1 mi NNW 4.6 mph - N/A   Haze
8:00 PM 100.4 °F - 44.6 °F 15% 29.59 in 2.5 mi Variable 3.5 mph - N/A   Haze
8:30 PM 100 °F - 47 °F 9% 29.49 in 2 mi 2.3 mph - -   Haze
9:00 PM 98.6 °F - 48.2 °F 18% 29.59 in 2.5 mi WNW 3.5 mph - N/A   Haze
10:00 PM 95.0 °F - 50.0 °F 22% 29.62 in 2.5 mi West 5.8 mph - N/A   Haze
11:00 PM 95.0 °F 92.7 °F 53.6 °F 25% 29.62 in 2.5 mi West 6.9 mph - N/A   Haze
11:30 PM 95 °F - 54 °F 16% 29.52 in 2 mi WNW 9.2 mph - -   Haze